Previsão horária em Juszowice

Hoje, 22 Junho, Terça-feira

Tempo Temperatura Precipitação Vento Pressão Humidade
00:00 +19°C° 0 mm 2 m/s 742 mmHg 86%
01:00 +19°C° 0 mm 2 m/s 743 mmHg 85%
02:00 +19°C° 0 mm 2 m/s 743 mmHg 87%
03:00 +19°C° 0 mm 2 m/s 743 mmHg 88%
04:00 +18°C° 0 mm 2 m/s 744 mmHg 90%
05:00 +19°C° 0.2 mm 3 m/s 744 mmHg 89%
06:00 +20°C° 0.2 mm 4 m/s 745 mmHg 88%
07:00 +20°C° 0.2 mm 6 m/s 745 mmHg 87%
08:00 +21°C° 0 mm 5 m/s 745 mmHg 83%
09:00 +22°C° 0 mm 5 m/s 745 mmHg 78%
10:00 +22°C° 0 mm 4 m/s 746 mmHg 74%
11:00 +22°C° 0 mm 4 m/s 746 mmHg 75%
12:00 +22°C° 0 mm 4 m/s 746 mmHg 76%
13:00 +22°C° 0 mm 4 m/s 747 mmHg 77%
14:00 +22°C° 0 mm 4 m/s 747 mmHg 74%
15:00 +22°C° 0 mm 4 m/s 747 mmHg 72%
16:00 +23°C° 0 mm 4 m/s 747 mmHg 69%
17:00 +22°C° 0.2 mm 4 m/s 747 mmHg 73%
18:00 +21°C° 0.2 mm 4 m/s 747 mmHg 76%
19:00 +20°C° 0.2 mm 4 m/s 748 mmHg 79%
20:00 +19°C° 0 mm 3 m/s 748 mmHg 82%
21:00 +19°C° 0 mm 3 m/s 748 mmHg 85%
22:00 +18°C° 0 mm 3 m/s 748 mmHg 87%
23:00 +17°C° 0 mm 2 m/s 749 mmHg 88%

Amanhã, 23 Junho, Quarta-feira

Tempo Temperatura Precipitação Vento Pressão Humidade
00:00 +17°C° 0 mm 2 m/s 749 mmHg 89%
01:00 +16°C° 0 mm 2 m/s 749 mmHg 90%
02:00 +16°C° 0 mm 2 m/s 749 mmHg 90%
03:00 +15°C° 0 mm 2 m/s 749 mmHg 90%
04:00 +15°C° 0 mm 2 m/s 749 mmHg 90%
05:00 +16°C° 0 mm 2 m/s 749 mmHg 83%
06:00 +17°C° 0 mm 3 m/s 750 mmHg 77%
07:00 +18°C° 0 mm 3 m/s 751 mmHg 70%
08:00 +19°C° 0 mm 3 m/s 751 mmHg 66%
09:00 +20°C° 0 mm 3 m/s 751 mmHg 62%
10:00 +20°C° 0 mm 3 m/s 751 mmHg 58%
11:00 +21°C° 0.1 mm 3 m/s 751 mmHg 58%
12:00 +23°C° 0.1 mm 2 m/s 751 mmHg 57%
13:00 +24°C° 0.1 mm 2 m/s 751 mmHg 56%
14:00 +23°C° 0.2 mm 2 m/s 751 mmHg 58%
15:00 +23°C° 0.2 mm 2 m/s 751 mmHg 61%
16:00 +23°C° 0.2 mm 2 m/s 751 mmHg 63%
17:00 +22°C° 0.1 mm 1 m/s 751 mmHg 67%
18:00 +22°C° 0.1 mm 1 m/s 751 mmHg 71%
19:00 +21°C° 0.1 mm 1 m/s 750 mmHg 76%
20:00 +21°C° 0 mm 1 m/s 750 mmHg 76%
21:00 +20°C° 0 mm 1 m/s 750 mmHg 77%
22:00 +19°C° 0 mm 1 m/s 750 mmHg 77%
23:00 +19°C° 0 mm 1 m/s 750 mmHg 80%

Depois de amanhã, 24 Junho, Quinta-feira

Tempo Temperatura Precipitação Vento Pressão Humidade
00:00 +18°C° 0 mm 1 m/s 750 mmHg 82%
01:00 +18°C° 0 mm 1 m/s 750 mmHg 84%
02:00 +16°C° 0 mm 1 m/s 750 mmHg 85%
03:00 +16°C° 0 mm 1 m/s 750 mmHg 86%
04:00 +16°C° 0 mm 2 m/s 750 mmHg 88%
05:00 +18°C° 0 mm 1 m/s 750 mmHg 83%
06:00 +19°C° 0 mm 1 m/s 750 mmHg 79%
07:00 +21°C° 0 mm 1 m/s 751 mmHg 75%
08:00 +21°C° 0.1 mm 1 m/s 750 mmHg 72%
09:00 +22°C° 0.1 mm 1 m/s 750 mmHg 69%
10:00 +23°C° 0.1 mm 2 m/s 750 mmHg 66%
11:00 +24°C° 0.1 mm 2 m/s 750 mmHg 63%
12:00 +25°C° 0.1 mm 1 m/s 750 mmHg 61%
13:00 +26°C° 0.1 mm 1 m/s 750 mmHg 58%
14:00 +26°C° 0 mm 1 m/s 749 mmHg 59%
15:00 +26°C° 0 mm 1 m/s 749 mmHg 61%
16:00 +26°C° 0 mm 2 m/s 749 mmHg 62%
17:00 +26°C° 0 mm 2 m/s 748 mmHg 67%
18:00 +25°C° 0 mm 2 m/s 748 mmHg 72%
19:00 +24°C° 0 mm 3 m/s 747 mmHg 77%
20:00 +23°C° 0.4 mm 2 m/s 747 mmHg 81%
21:00 +21°C° 0.4 mm 2 m/s 747 mmHg 86%
22:00 +20°C° 0.4 mm 2 m/s 747 mmHg 90%
23:00 +19°C° 4.7 mm 2 m/s 747 mmHg 93%

25 Junho, Sexta-feira

Tempo Temperatura Precipitação Vento Pressão Humidade
00:00 +19°C° 4.7 mm 2 m/s 746 mmHg 95%
01:00 +19°C° 4.7 mm 3 m/s 746 mmHg 98%
02:00 +18°C° 0.7 mm 3 m/s 746 mmHg 98%
03:00 +18°C° 0.7 mm 3 m/s 746 mmHg 97%
04:00 +18°C° 0.7 mm 3 m/s 746 mmHg 97%
05:00 +18°C° 0.4 mm 3 m/s 747 mmHg 97%
06:00 +18°C° 0.4 mm 3 m/s 747 mmHg 97%
07:00 +17°C° 0.4 mm 3 m/s 747 mmHg 96%
08:00 +18°C° 0.1 mm 4 m/s 748 mmHg 94%
09:00 +18°C° 0.1 mm 4 m/s 748 mmHg 92%
10:00 +18°C° 0.1 mm 4 m/s 748 mmHg 89%
11:00 +18°C° 0.1 mm 4 m/s 749 mmHg 89%
12:00 +18°C° 0.1 mm 4 m/s 749 mmHg 89%
13:00 +17°C° 0.1 mm 5 m/s 749 mmHg 88%
14:00 +18°C° 0.2 mm 4 m/s 749 mmHg 89%
15:00 +17°C° 0.2 mm 4 m/s 750 mmHg 90%
16:00 +17°C° 0.2 mm 4 m/s 750 mmHg 91%
17:00 +17°C° 0.1 mm 3 m/s 750 mmHg 90%
18:00 +17°C° 0.1 mm 3 m/s 750 mmHg 90%
19:00 +17°C° 0.1 mm 3 m/s 750 mmHg 89%
20:00 +16°C° 0 mm 3 m/s 750 mmHg 91%
21:00 +16°C° 0 mm 3 m/s 750 mmHg 92%
22:00 +14°C° 0 mm 3 m/s 750 mmHg 93%
23:00 +14°C° 0 mm 3 m/s 750 mmHg 93%

26 Junho, Sábado

Tempo Temperatura Precipitação Vento Pressão Humidade
00:00 +14°C° 0 mm 3 m/s 751 mmHg 93%
01:00 +14°C° 0 mm 3 m/s 751 mmHg 94%
02:00 +14°C° 0 mm 3 m/s 751 mmHg 93%
03:00 +14°C° 0 mm 3 m/s 751 mmHg 92%
04:00 +14°C° 0 mm 3 m/s 750 mmHg 91%
05:00 +14°C° 0 mm 3 m/s 751 mmHg 88%
06:00 +16°C° 0 mm 3 m/s 751 mmHg 85%
07:00 +15°C° 0 mm 4 m/s 751 mmHg 82%
08:00 +18°C° 0 mm 4 m/s 751 mmHg 75%
09:00 +20°C° 0 mm 4 m/s 751 mmHg 68%
10:00 +21°C° 0 mm 4 m/s 751 mmHg 61%
11:00 +22°C° 0 mm 4 m/s 751 mmHg 57%
12:00 +23°C° 0 mm 4 m/s 750 mmHg 54%
13:00 +25°C° 0 mm 3 m/s 750 mmHg 50%
14:00 +23°C° 0.1 mm 4 m/s 750 mmHg 55%
15:00 +23°C° 0.1 mm 4 m/s 750 mmHg 60%
16:00 +22°C° 0.1 mm 4 m/s 750 mmHg 64%
17:00 +21°C° 0.5 mm 4 m/s 750 mmHg 70%
18:00 +20°C° 0.5 mm 3 m/s 750 mmHg 76%
19:00 +19°C° 0.5 mm 3 m/s 750 mmHg 82%
20:00 +18°C° 0 mm 2 m/s 750 mmHg 84%
21:00 +17°C° 0 mm 2 m/s 750 mmHg 87%
22:00 +16°C° 0 mm 2 m/s 750 mmHg 89%
23:00 +16°C° 0 mm 2 m/s 750 mmHg 90%

27 Junho, Domingo

Tempo Temperatura Precipitação Vento Pressão Humidade
00:00 +15°C° 0 mm 2 m/s 750 mmHg 91%
01:00 +15°C° 0 mm 2 m/s 750 mmHg 92%
02:00 +15°C° 0 mm 2 m/s 750 mmHg 93%
03:00 +14°C° 0 mm 2 m/s 750 mmHg 94%
04:00 +14°C° 0 mm 2 m/s 750 mmHg 95%
05:00 +15°C° 0 mm 2 m/s 750 mmHg 90%
06:00 +17°C° 0 mm 2 m/s 750 mmHg 86%
07:00 +18°C° 0 mm 3 m/s 751 mmHg 81%
08:00 +20°C° 0.1 mm 3 m/s 751 mmHg 75%
09:00 +21°C° 0.1 mm 3 m/s 750 mmHg 68%
10:00 +24°C° 0.1 mm 3 m/s 750 mmHg 62%
11:00 +24°C° 0.5 mm 3 m/s 750 mmHg 60%
12:00 +25°C° 0.5 mm 3 m/s 750 mmHg 59%
13:00 +25°C° 0.5 mm 3 m/s 750 mmHg 57%
14:00 +25°C° 0.2 mm 3 m/s 750 mmHg 58%
15:00 +25°C° 0.2 mm 3 m/s 750 mmHg 59%
16:00 +24°C° 0.2 mm 3 m/s 750 mmHg 60%
17:00 +24°C° 0.1 mm 2 m/s 750 mmHg 64%
18:00 +23°C° 0.1 mm 2 m/s 750 mmHg 68%
19:00 +21°C° 0.1 mm 2 m/s 750 mmHg 73%
20:00 +20°C° 0 mm 2 m/s 750 mmHg 77%
21:00 +19°C° 0 mm 2 m/s 750 mmHg 81%
22:00 +18°C° 0 mm 1 m/s 750 mmHg 85%
23:00 +17°C° 0 mm 2 m/s 751 mmHg 87%
Mostrar mais

Necessitamos do seu Consentimento

A Meteoprog e os seus Fornecedores de Serviços podem armazenar e aceder a dados pessoais como cookies, identificadores do dispositivo ou outras tecnologias semelhantes existentes no seu dispositivo e processar estes dados para personalizar conteúdos e anúncios, assim como funcionalidades nas redes sociais e análise de tráfego.

  • Armazenar e/ou aceder a informações no seu dispositivo

    Os cookies, identificadores do dispositivo ou outras informações podem ser armazenados ou acedidos no seu dispositivo, para os fins acima indicados.

  • Anúncios e conteúdos personalizados, medição de anúncios e conteúdos, dados sobre o público-alvo e desenvolvimento de produtos

    Os anúncios e os conteúdos podem ser personalizados com base num perfil. Podem ser adicionados dados adicionais para uma maior personalização dos anúncios e dos conteúdos. A eficácia dos anúncios e dos conteúdos pode ser medida. Podem ser obtidas informações sobre o público que visualizou os anúncios e os conteúdos. Estes dados podem ser usados para desenvolver ou melhorar sistemas, softwares ou a experiência do utilizador.

Ao clicar em "Eu concordo”, permitirá o uso de cookies, identificadores do dispositivo e web beacons mencionados ou outras tecnologias semelhantes. As configurações do navegador do seu dispositivo podem ser alteradas.

Para certos fins, podem ser invocados interesses legítimos ao invés de consentimento. Pode ler mais informação sobre este assunto na nossa Política de Privacidade e Cookies.